User: anonymous   Login
Location: Fort Wayne
(41.1310°N, 85.1290°W)
Time: 21:03:23
(UTC-04:00)
Language:

MetOp-A - Orbit

View from above orbital plane
View from above orbital plane
View from above satellite
View from above satellite

Ground track
Ground track

The orbit data is extracted from the following two-line orbital elements,

1 29499U 06044A   15211.17711296  .00000030  00000-0  33748-4 0  9993
2 29499 098.6725 269.7807 0001675 072.8154 349.4488 14.21495044455397
Epoch (UTC): 30 July 2015 04:15:02
Eccentricity: 0.0001675
inclination: 98.6725°
perigee height: 819 km
apogee height: 821 km
right ascension of ascending node: 269.7807°
argument of perigee: 72.8154°
revolutions per day: 14.21495044
mean anomaly at epoch: 349.4488°
orbit number at epoch: 45539

The dashed part of the orbit path shows where the satellite is in the earth's shadow,  

DLR